Year,Month,Day,Hour,Minute,Value (Times are PST for windgust in km/hr)
2010,04,02,00,00,12.90
2010,04,02,00,01,6.40
2010,04,02,00,02,17.70
2010,04,02,00,03,9.60
2010,04,02,00,04,17.70
2010,04,02,00,05,8.10
2010,04,02,00,06,14.50
2010,04,02,00,07,9.60
2010,04,02,00,08,22.50
2010,04,02,00,09,24.20
2010,04,02,00,10,24.20
2010,04,02,00,11,14.50
2010,04,02,00,12,19.30
2010,04,02,00,13,19.30
2010,04,02,00,14,9.60
2010,04,02,00,15,11.30
2010,04,02,00,16,14.50
2010,04,02,00,17,11.30
2010,04,02,00,18,14.50
2010,04,02,00,19,11.30
2010,04,02,00,20,6.40
2010,04,02,00,21,9.60
2010,04,02,00,22,9.60
2010,04,02,00,23,16.10
2010,04,02,00,24,4.80
2010,04,02,00,25,8.10
2010,04,02,00,26,12.90
2010,04,02,00,27,14.50
2010,04,02,00,28,11.30
2010,04,02,00,29,12.90
2010,04,02,00,30,8.10
2010,04,02,00,31,4.80
2010,04,02,00,32,3.20
2010,04,02,00,33,14.50
2010,04,02,00,34,9.60
2010,04,02,00,35,8.10
2010,04,02,00,36,6.40
2010,04,02,00,37,6.40
2010,04,02,00,38,8.10
2010,04,02,00,39,9.60
2010,04,02,00,40,14.50
2010,04,02,00,41,4.80
2010,04,02,00,42,9.60
2010,04,02,00,43,9.60
2010,04,02,00,44,16.10
2010,04,02,00,45,11.30
2010,04,02,00,46,8.10
2010,04,02,00,47,6.40
2010,04,02,00,48,16.10
2010,04,02,00,49,25.70
2010,04,02,00,50,19.30
2010,04,02,00,51,22.50
2010,04,02,00,52,9.60
2010,04,02,00,53,9.60
2010,04,02,00,54,16.10
2010,04,02,00,55,14.50
2010,04,02,00,56,9.60
2010,04,02,00,57,20.90
2010,04,02,00,58,17.70
2010,04,02,00,59,19.30
2010,04,02,01,00,17.70
2010,04,02,01,01,17.70
2010,04,02,01,02,9.60
2010,04,02,01,03,16.10
2010,04,02,01,04,11.30
2010,04,02,01,05,16.10
2010,04,02,01,06,16.10
2010,04,02,01,07,20.90
2010,04,02,01,08,17.70
2010,04,02,01,09,22.50
2010,04,02,01,10,20.90
2010,04,02,01,11,8.10
2010,04,02,01,12,9.60
2010,04,02,01,13,9.60
2010,04,02,01,14,6.40
2010,04,02,01,15,9.60
2010,04,02,01,16,9.60
2010,04,02,01,17,8.10
2010,04,02,01,18,19.30
2010,04,02,01,19,19.30
2010,04,02,01,20,12.90
2010,04,02,01,21,11.30
2010,04,02,01,22,12.90
2010,04,02,01,23,8.10
2010,04,02,01,24,14.50
2010,04,02,01,25,17.70
2010,04,02,01,26,16.10
2010,04,02,01,27,16.10
2010,04,02,01,28,17.70
2010,04,02,01,29,19.30
2010,04,02,01,30,16.10
2010,04,02,01,31,16.10
2010,04,02,01,32,20.90
2010,04,02,01,33,20.90
2010,04,02,01,34,25.70
2010,04,02,01,35,16.10
2010,04,02,01,36,9.60
2010,04,02,01,37,17.70
2010,04,02,01,38,19.30
2010,04,02,01,39,17.70
2010,04,02,01,40,9.60
2010,04,02,01,41,17.70
2010,04,02,01,42,20.90
2010,04,02,01,43,22.50
2010,04,02,01,44,25.70
2010,04,02,01,45,16.10
2010,04,02,01,46,14.50
2010,04,02,01,47,19.30
2010,04,02,01,48,12.90
2010,04,02,01,49,17.70
2010,04,02,01,50,20.90
2010,04,02,01,51,11.30
2010,04,02,01,52,6.40
2010,04,02,01,53,11.30
2010,04,02,01,54,17.70
2010,04,02,01,55,29.00
2010,04,02,01,56,16.10
2010,04,02,01,57,24.20
2010,04,02,01,58,11.30
2010,04,02,01,59,11.30
2010,04,02,02,00,17.70
2010,04,02,02,01,19.30
2010,04,02,02,02,24.20
2010,04,02,02,03,20.90
2010,04,02,02,04,14.50
2010,04,02,02,05,14.50
2010,04,02,02,06,11.30
2010,04,02,02,07,8.10
2010,04,02,02,08,17.70
2010,04,02,02,09,6.40
2010,04,02,02,10,4.80
2010,04,02,02,11,9.60
2010,04,02,02,12,9.60
2010,04,02,02,13,22.50
2010,04,02,02,14,16.10
2010,04,02,02,15,14.50
2010,04,02,02,16,9.60
2010,04,02,02,17,11.30
2010,04,02,02,18,9.60
2010,04,02,02,19,30.60
2010,04,02,02,20,24.20
2010,04,02,02,21,20.90
2010,04,02,02,22,17.70
2010,04,02,02,23,14.50
2010,04,02,02,24,16.10
2010,04,02,02,25,19.30
2010,04,02,02,26,8.10
2010,04,02,02,27,19.30
2010,04,02,02,28,22.50
2010,04,02,02,29,27.40
2010,04,02,02,30,16.10
2010,04,02,02,31,20.90
2010,04,02,02,32,17.70
2010,04,02,02,33,14.50
2010,04,02,02,34,19.30
2010,04,02,02,35,24.20
2010,04,02,02,36,9.60
2010,04,02,02,37,9.60
2010,04,02,02,38,14.50
2010,04,02,02,39,14.50
2010,04,02,02,40,20.90
2010,04,02,02,41,17.70
2010,04,02,02,42,20.90
2010,04,02,02,43,14.50
2010,04,02,02,44,14.50
2010,04,02,02,45,12.90
2010,04,02,02,46,9.60
2010,04,02,02,47,17.70
2010,04,02,02,48,19.30
2010,04,02,02,49,14.50
2010,04,02,02,50,16.10
2010,04,02,02,51,14.50
2010,04,02,02,52,19.30
2010,04,02,02,53,6.40
2010,04,02,02,54,6.40
2010,04,02,02,55,4.80
2010,04,02,02,56,4.80
2010,04,02,02,57,4.80
2010,04,02,02,58,6.40
2010,04,02,02,59,3.20
2010,04,02,03,00,3.20
2010,04,02,03,01,6.40
2010,04,02,03,02,3.20
2010,04,02,03,03,1.60
2010,04,02,03,04,3.20
2010,04,02,03,05,1.60
2010,04,02,03,06,1.60
2010,04,02,03,07,0.00
2010,04,02,03,08,1.60
2010,04,02,03,09,1.60
2010,04,02,03,10,3.20
2010,04,02,03,11,3.20
2010,04,02,03,12,4.80
2010,04,02,03,13,4.80
2010,04,02,03,14,4.80
2010,04,02,03,15,3.20
2010,04,02,03,16,4.80
2010,04,02,03,17,4.80
2010,04,02,03,18,4.80
2010,04,02,03,19,3.20
2010,04,02,03,20,4.80
2010,04,02,03,21,3.20
2010,04,02,03,22,1.60
2010,04,02,03,23,4.80
2010,04,02,03,24,3.20
2010,04,02,03,25,0.00
2010,04,02,03,26,0.00
2010,04,02,03,27,0.00
2010,04,02,03,28,0.00
2010,04,02,03,29,0.00
2010,04,02,03,30,0.00
2010,04,02,03,31,0.00
2010,04,02,03,32,0.00
2010,04,02,03,33,0.00
2010,04,02,03,34,3.20
2010,04,02,03,35,3.20
2010,04,02,03,36,3.20
2010,04,02,03,37,3.20
2010,04,02,03,38,3.20
2010,04,02,03,39,3.20
2010,04,02,03,40,1.60
2010,04,02,03,41,1.60
2010,04,02,03,42,1.60
2010,04,02,03,43,1.60
2010,04,02,03,44,3.20
2010,04,02,03,45,4.80
2010,04,02,03,46,4.80
2010,04,02,03,47,3.20
2010,04,02,03,48,3.20
2010,04,02,03,49,3.20
2010,04,02,03,50,1.60
2010,04,02,03,51,3.20
2010,04,02,03,52,3.20
2010,04,02,03,53,4.80
2010,04,02,03,54,4.80
2010,04,02,03,55,4.80
2010,04,02,03,56,4.80
2010,04,02,03,57,6.40
2010,04,02,03,58,6.40
2010,04,02,03,59,3.20
2010,04,02,04,00,0.00
2010,04,02,04,01,0.00
2010,04,02,04,02,0.00
2010,04,02,04,03,0.00
2010,04,02,04,04,0.00
2010,04,02,04,05,1.60
2010,04,02,04,06,3.20
2010,04,02,04,07,3.20
2010,04,02,04,08,3.20
2010,04,02,04,09,0.00
2010,04,02,04,10,1.60
2010,04,02,04,11,0.00
2010,04,02,04,12,0.00
2010,04,02,04,13,0.00
2010,04,02,04,14,0.00
2010,04,02,04,15,0.00
2010,04,02,04,16,0.00
2010,04,02,04,17,0.00
2010,04,02,04,18,0.00
2010,04,02,04,19,0.00
2010,04,02,04,20,1.60
2010,04,02,04,21,0.00
2010,04,02,04,22,0.00
2010,04,02,04,23,0.00
2010,04,02,04,24,0.00
2010,04,02,04,25,3.20
2010,04,02,04,26,3.20
2010,04,02,04,27,0.00
2010,04,02,04,28,1.60
2010,04,02,04,29,0.00
2010,04,02,04,30,0.00
2010,04,02,04,31,0.00
2010,04,02,04,32,0.00
2010,04,02,04,33,0.00
2010,04,02,04,34,0.00
2010,04,02,04,35,0.00
2010,04,02,04,36,0.00
2010,04,02,04,37,0.00
2010,04,02,04,38,0.00
2010,04,02,04,39,0.00
2010,04,02,04,40,0.00
2010,04,02,04,41,0.00
2010,04,02,04,42,0.00
2010,04,02,04,43,0.00
2010,04,02,04,44,0.00
2010,04,02,04,45,0.00
2010,04,02,04,46,0.00
2010,04,02,04,47,0.00
2010,04,02,04,48,1.60
2010,04,02,04,49,1.60
2010,04,02,04,50,1.60
2010,04,02,04,51,3.20
2010,04,02,04,52,6.40
2010,04,02,04,53,6.40
2010,04,02,04,54,8.10
2010,04,02,04,55,4.80
2010,04,02,04,56,4.80
2010,04,02,04,57,4.80
2010,04,02,04,58,1.60
2010,04,02,04,59,6.40
2010,04,02,05,00,24.20
2010,04,02,05,01,17.70
2010,04,02,05,02,9.60
2010,04,02,05,03,16.10
2010,04,02,05,04,11.30
2010,04,02,05,05,27.40
2010,04,02,05,06,17.70
2010,04,02,05,07,17.70
2010,04,02,05,08,24.20
2010,04,02,05,09,29.00
2010,04,02,05,10,17.70
2010,04,02,05,11,24.20
2010,04,02,05,12,27.40
2010,04,02,05,13,22.50
2010,04,02,05,14,29.00
2010,04,02,05,15,22.50
2010,04,02,05,16,27.40
2010,04,02,05,17,27.40
2010,04,02,05,18,29.00
2010,04,02,05,19,27.40
2010,04,02,05,20,32.20
2010,04,02,05,21,17.70
2010,04,02,05,22,19.30
2010,04,02,05,23,37.00
2010,04,02,05,24,37.00
2010,04,02,05,25,24.20
2010,04,02,05,26,30.60
2010,04,02,05,27,29.00
2010,04,02,05,28,37.00
2010,04,02,05,29,35.40
2010,04,02,05,30,24.20
2010,04,02,05,31,41.80
2010,04,02,05,32,19.30
2010,04,02,05,33,30.60
2010,04,02,05,34,38.60
2010,04,02,05,35,19.30
2010,04,02,05,36,49.90
2010,04,02,05,37,40.20
2010,04,02,05,38,27.40
2010,04,02,05,39,29.00
2010,04,02,05,40,24.20
2010,04,02,05,41,20.90
2010,04,02,05,42,32.20
2010,04,02,05,43,30.60
2010,04,02,05,44,37.00
2010,04,02,05,45,45.10
2010,04,02,05,46,33.80
2010,04,02,05,47,35.40
2010,04,02,05,48,38.60
2010,04,02,05,49,41.80
2010,04,02,05,50,27.40
2010,04,02,05,51,30.60
2010,04,02,05,52,33.80
2010,04,02,05,53,40.20
2010,04,02,05,54,29.00
2010,04,02,05,55,37.00
2010,04,02,05,56,19.30
2010,04,02,05,57,38.60
2010,04,02,05,58,38.60
2010,04,02,05,59,43.50
2010,04,02,06,00,35.40
2010,04,02,06,01,48.30
2010,04,02,06,02,37.00
2010,04,02,06,03,37.00
2010,04,02,06,04,30.60
2010,04,02,06,05,22.50
2010,04,02,06,06,32.20
2010,04,02,06,07,22.50
2010,04,02,06,08,46.70
2010,04,02,06,09,41.80
2010,04,02,06,10,29.00
2010,04,02,06,11,30.60
2010,04,02,06,12,37.00
2010,04,02,06,13,35.40
2010,04,02,06,14,43.50
2010,04,02,06,15,30.60
2010,04,02,06,16,45.10
2010,04,02,06,17,29.00
2010,04,02,06,18,45.10
2010,04,02,06,19,27.40
2010,04,02,06,20,30.60
2010,04,02,06,21,41.80
2010,04,02,06,22,30.60
2010,04,02,06,23,40.20
2010,04,02,06,24,25.70
2010,04,02,06,25,32.20
2010,04,02,06,26,27.40
2010,04,02,06,27,32.20
2010,04,02,06,28,40.20
2010,04,02,06,29,54.70
2010,04,02,06,30,25.70
2010,04,02,06,31,27.40
2010,04,02,06,32,43.50
2010,04,02,06,33,33.80
2010,04,02,06,34,35.40
2010,04,02,06,35,35.40
2010,04,02,06,36,51.50
2010,04,02,06,37,40.20
2010,04,02,06,38,35.40
2010,04,02,06,39,51.50
2010,04,02,06,40,35.40
2010,04,02,06,41,29.00
2010,04,02,06,42,35.40
2010,04,02,06,43,51.50
2010,04,02,06,44,37.00
2010,04,02,06,45,17.70
2010,04,02,06,46,20.90
2010,04,02,06,47,27.40
2010,04,02,06,48,49.90
2010,04,02,06,49,53.10
2010,04,02,06,50,46.70
2010,04,02,06,51,64.40
2010,04,02,06,52,32.20
2010,04,02,06,53,45.10
2010,04,02,06,54,56.30
2010,04,02,06,55,41.80
2010,04,02,06,56,38.60
2010,04,02,06,57,43.50
2010,04,02,06,58,53.10
2010,04,02,06,59,33.80
2010,04,02,07,00,35.40
2010,04,02,07,01,40.20
2010,04,02,07,02,53.10
2010,04,02,07,03,27.40
2010,04,02,07,04,38.60
2010,04,02,07,05,38.60
2010,04,02,07,06,33.80
2010,04,02,07,07,51.50
2010,04,02,07,08,40.20
2010,04,02,07,09,43.50
2010,04,02,07,10,40.20
2010,04,02,07,13,43.50
2010,04,02,07,14,53.10
2010,04,02,07,15,46.70
2010,04,02,07,16,38.60
2010,04,02,07,17,53.10
2010,04,02,07,18,49.90
2010,04,02,07,19,48.30
2010,04,02,07,20,37.00
2010,04,02,07,21,38.60
2010,04,02,07,22,43.50
2010,04,02,07,23,54.70
2010,04,02,07,24,37.00
2010,04,02,07,25,33.80
2010,04,02,07,26,46.70
2010,04,02,07,27,51.50
2010,04,02,07,28,53.10
2010,04,02,07,29,43.50
2010,04,02,07,30,32.20
2010,04,02,07,31,37.00
2010,04,02,07,32,38.60
2010,04,02,07,33,38.60
2010,04,02,07,34,38.60
2010,04,02,07,35,49.90
2010,04,02,07,36,53.10
2010,04,02,07,37,45.10
2010,04,02,07,38,49.90
2010,04,02,07,39,45.10
2010,04,02,07,40,57.90
2010,04,02,07,41,38.60
2010,04,02,07,42,37.00
2010,04,02,07,43,59.50
2010,04,02,07,44,59.50
2010,04,02,07,45,51.50
2010,04,02,07,46,59.50
2010,04,02,07,47,48.30
2010,04,02,07,48,53.10
2010,04,02,07,49,37.00
2010,04,02,07,50,46.70
2010,04,02,07,51,35.40
2010,04,02,07,52,37.00
2010,04,02,07,53,53.10
2010,04,02,07,54,53.10
2010,04,02,07,55,35.40
2010,04,02,07,56,35.40
2010,04,02,07,57,25.70
2010,04,02,07,58,32.20
2010,04,02,07,59,35.40
2010,04,02,08,00,54.70
2010,04,02,08,01,38.60
2010,04,02,08,02,46.70
2010,04,02,08,03,40.20
2010,04,02,08,04,48.30
2010,04,02,08,05,45.10
2010,04,02,08,06,35.40
2010,04,02,08,07,24.20
2010,04,02,08,08,59.50
2010,04,02,08,09,49.90
2010,04,02,08,10,38.60
2010,04,02,08,11,41.80
2010,04,02,08,12,51.50
2010,04,02,08,13,46.70
2010,04,02,08,14,38.60
2010,04,02,08,15,46.70
2010,04,02,08,16,46.70
2010,04,02,08,17,49.90
2010,04,02,08,18,33.80
2010,04,02,08,19,38.60
2010,04,02,08,20,38.60
2010,04,02,08,21,35.40
2010,04,02,08,22,53.10
2010,04,02,08,23,40.20
2010,04,02,08,24,43.50
2010,04,02,08,25,48.30
2010,04,02,08,26,32.20
2010,04,02,08,27,33.80
2010,04,02,08,28,46.70
2010,04,02,08,29,32.20
2010,04,02,08,30,46.70
2010,04,02,08,31,48.30
2010,04,02,08,32,35.40
2010,04,02,08,33,30.60
2010,04,02,08,34,24.20
2010,04,02,08,35,35.40
2010,04,02,08,36,35.40
2010,04,02,08,37,43.50
2010,04,02,08,38,48.30
2010,04,02,08,39,32.20
2010,04,02,08,40,27.40
2010,04,02,08,41,35.40
2010,04,02,08,42,41.80
2010,04,02,08,43,48.30
2010,04,02,08,44,27.40
2010,04,02,08,45,48.30
2010,04,02,08,46,33.80
2010,04,02,08,47,17.70
2010,04,02,08,48,43.50
2010,04,02,08,49,46.70
2010,04,02,08,50,46.70
2010,04,02,08,51,46.70
2010,04,02,08,52,43.50
2010,04,02,08,53,43.50
2010,04,02,08,54,43.50
2010,04,02,08,55,43.50
2010,04,02,08,56,41.80
2010,04,02,08,57,33.80
2010,04,02,08,58,45.10
2010,04,02,08,59,33.80
2010,04,02,09,00,40.20
2010,04,02,09,01,45.10
2010,04,02,09,02,49.90
2010,04,02,09,03,35.40
2010,04,02,09,04,40.20
2010,04,02,09,05,45.10
2010,04,02,09,06,38.60
2010,04,02,09,07,38.60
2010,04,02,09,08,35.40
2010,04,02,09,09,48.30
2010,04,02,09,10,40.20
2010,04,02,09,11,53.10
2010,04,02,09,12,33.80
2010,04,02,09,13,48.30
2010,04,02,09,14,66.00
2010,04,02,09,15,49.90
2010,04,02,09,16,38.60
2010,04,02,09,17,49.90
2010,04,02,09,18,46.70
2010,04,02,09,19,45.10
2010,04,02,09,20,53.10
2010,04,02,09,21,45.10
2010,04,02,09,22,41.80
2010,04,02,09,23,33.80
2010,04,02,09,24,59.50
2010,04,02,09,25,53.10
2010,04,02,09,26,48.30
2010,04,02,09,27,41.80
2010,04,02,09,28,48.30
2010,04,02,09,29,37.00
2010,04,02,09,30,43.50
2010,04,02,09,31,37.00
2010,04,02,09,32,32.20
2010,04,02,09,33,38.60
2010,04,02,09,34,54.70
2010,04,02,09,35,49.90
2010,04,02,09,36,48.30
2010,04,02,09,37,53.10
2010,04,02,09,38,51.50
2010,04,02,09,39,40.20
2010,04,02,09,40,56.30
2010,04,02,09,41,45.10
2010,04,02,09,42,51.50
2010,04,02,09,43,37.00
2010,04,02,09,44,48.30
2010,04,02,09,45,54.70
2010,04,02,09,46,38.60
2010,04,02,09,47,41.80
2010,04,02,09,48,54.70
2010,04,02,09,49,32.20
2010,04,02,09,50,27.40
2010,04,02,09,51,29.00
2010,04,02,09,52,38.60
2010,04,02,09,53,49.90
2010,04,02,09,54,57.90
2010,04,02,09,55,45.10
2010,04,02,09,56,45.10
2010,04,02,09,57,33.80
2010,04,02,09,58,51.50
2010,04,02,09,59,54.70
2010,04,02,10,00,37.00
2010,04,02,10,01,49.90
2010,04,02,10,02,45.10
2010,04,02,10,03,33.80
2010,04,02,10,04,32.20
2010,04,02,10,05,40.20
2010,04,02,10,06,53.10
2010,04,02,10,07,35.40
2010,04,02,10,08,25.70
2010,04,02,10,09,53.10
2010,04,02,10,10,46.70
2010,04,02,10,11,41.80
2010,04,02,10,12,40.20
2010,04,02,10,13,59.50
2010,04,02,10,14,48.30
2010,04,02,10,15,46.70
2010,04,02,10,16,27.40
2010,04,02,10,17,45.10
2010,04,02,10,18,43.50
2010,04,02,10,19,43.50
2010,04,02,10,20,37.00
2010,04,02,10,21,45.10
2010,04,02,10,22,33.80
2010,04,02,10,23,40.20
2010,04,02,10,24,59.50
2010,04,02,10,25,43.50
2010,04,02,10,26,46.70
2010,04,02,10,27,45.10
2010,04,02,10,28,40.20
2010,04,02,10,29,48.30
2010,04,02,10,30,48.30
2010,04,02,10,31,41.80
2010,04,02,10,32,30.60
2010,04,02,10,33,54.70
2010,04,02,10,34,53.10
2010,04,02,10,35,49.90
2010,04,02,10,36,46.70
2010,04,02,10,37,43.50
2010,04,02,10,38,32.20
2010,04,02,10,39,32.20
2010,04,02,10,40,49.90
2010,04,02,10,41,46.70
2010,04,02,10,42,74.00
2010,04,02,10,43,57.90
2010,04,02,10,44,48.30
2010,04,02,10,45,49.90
2010,04,02,10,46,37.00
2010,04,02,10,47,27.40
2010,04,02,10,48,24.20
2010,04,02,10,49,38.60
2010,04,02,10,50,32.20
2010,04,02,10,51,41.80
2010,04,02,10,52,48.30
2010,04,02,10,53,41.80
2010,04,02,10,54,37.00
2010,04,02,10,55,56.30
2010,04,02,10,56,35.40
2010,04,02,10,57,38.60
2010,04,02,10,58,30.60
2010,04,02,10,59,27.40
2010,04,02,11,00,62.70
2010,04,02,11,01,35.40
2010,04,02,11,02,38.60
2010,04,02,11,03,40.20
2010,04,02,11,04,43.50
2010,04,02,11,05,53.10
2010,04,02,11,06,45.10
2010,04,02,11,07,56.30
2010,04,02,11,08,48.30
2010,04,02,11,09,40.20
2010,04,02,11,10,51.50
2010,04,02,11,11,43.50
2010,04,02,11,12,49.90
2010,04,02,11,13,25.70
2010,04,02,11,14,24.20
2010,04,02,11,15,37.00
2010,04,02,11,16,59.50
2010,04,02,11,17,41.80
2010,04,02,11,18,48.30
2010,04,02,11,19,48.30
2010,04,02,11,20,48.30
2010,04,02,11,21,49.90
2010,04,02,11,22,53.10
2010,04,02,11,23,53.10
2010,04,02,11,24,53.10
2010,04,02,11,25,37.00
2010,04,02,11,26,33.80
2010,04,02,11,27,48.30
2010,04,02,11,28,46.70
2010,04,02,11,29,33.80
2010,04,02,11,30,45.10
2010,04,02,11,31,48.30
2010,04,02,11,32,40.20
2010,04,02,11,33,51.50
2010,04,02,11,34,38.60
2010,04,02,11,35,48.30
2010,04,02,11,36,51.50
2010,04,02,11,37,41.80
2010,04,02,11,38,43.50
2010,04,02,11,39,40.20
2010,04,02,11,40,35.40
2010,04,02,11,41,45.10
2010,04,02,11,42,49.90
2010,04,02,11,43,51.50
2010,04,02,11,44,48.30
2010,04,02,11,45,49.90
2010,04,02,11,46,61.20
2010,04,02,11,47,43.50
2010,04,02,11,48,54.70
2010,04,02,11,49,59.50
2010,04,02,11,50,37.00
2010,04,02,11,51,51.50
2010,04,02,11,52,53.10
2010,04,02,11,53,38.60
2010,04,02,11,54,43.50
2010,04,02,11,55,27.40
2010,04,02,11,56,32.20
2010,04,02,11,57,41.80
2010,04,02,11,58,53.10
2010,04,02,11,59,40.20
2010,04,02,12,00,33.80
2010,04,02,12,01,46.70
2010,04,02,12,02,37.00
2010,04,02,12,03,56.30
2010,04,02,12,04,54.70
2010,04,02,12,05,40.20
2010,04,02,12,06,57.90
2010,04,02,12,07,41.80
2010,04,02,12,08,37.00
2010,04,02,12,09,59.50
2010,04,02,12,10,53.10
2010,04,02,12,11,38.60
2010,04,02,12,12,40.20
2010,04,02,12,13,41.80
2010,04,02,12,14,45.10
2010,04,02,12,15,46.70
2010,04,02,12,16,51.50
2010,04,02,12,17,37.00
2010,04,02,12,18,41.80
2010,04,02,12,19,53.10
2010,04,02,12,20,43.50
2010,04,02,12,21,57.90
2010,04,02,12,22,38.60
2010,04,02,12,23,46.70
2010,04,02,12,24,40.20
2010,04,02,12,25,37.00
2010,04,02,12,26,19.30
2010,04,02,12,27,20.90
2010,04,02,12,28,24.20
2010,04,02,12,29,41.80
2010,04,02,12,30,30.60
2010,04,02,12,31,30.60
2010,04,02,12,32,20.90
2010,04,02,12,33,37.00
2010,04,02,12,34,57.90
2010,04,02,12,35,45.10
2010,04,02,12,36,38.60
2010,04,02,12,37,40.20
2010,04,02,12,38,25.70
2010,04,02,12,39,32.20
2010,04,02,12,40,29.00
2010,04,02,12,41,30.60
2010,04,02,12,42,43.50
2010,04,02,12,43,43.50
2010,04,02,12,44,32.20
2010,04,02,12,45,30.60
2010,04,02,12,46,40.20
2010,04,02,12,47,38.60
2010,04,02,12,48,32.20
2010,04,02,12,49,38.60
2010,04,02,12,50,51.50
2010,04,02,12,51,37.00
2010,04,02,12,52,32.20
2010,04,02,12,53,38.60
2010,04,02,12,54,48.30
2010,04,02,12,55,29.00
2010,04,02,12,56,46.70
2010,04,02,12,57,40.20
2010,04,02,12,58,33.80
2010,04,02,12,59,33.80
2010,04,02,13,00,30.60
2010,04,02,13,01,35.40
2010,04,02,13,02,22.50
2010,04,02,13,03,59.50
2010,04,02,13,04,37.00
2010,04,02,13,05,33.80
2010,04,02,13,06,33.80
2010,04,02,13,07,40.20
2010,04,02,13,08,45.10
2010,04,02,13,09,48.30
2010,04,02,13,10,37.00
2010,04,02,13,11,27.40
2010,04,02,13,12,27.40
2010,04,02,13,13,32.20
2010,04,02,13,14,22.50
2010,04,02,13,15,33.80
2010,04,02,13,16,22.50
2010,04,02,13,17,49.90
2010,04,02,13,18,29.00
2010,04,02,13,19,30.60
2010,04,02,13,20,35.40
2010,04,02,13,21,43.50
2010,04,02,13,22,37.00
2010,04,02,13,23,40.20
2010,04,02,13,24,38.60
2010,04,02,13,25,35.40
2010,04,02,13,26,32.20
2010,04,02,13,27,38.60
2010,04,02,13,28,33.80
2010,04,02,13,29,51.50
2010,04,02,13,30,46.70
2010,04,02,13,31,41.80
2010,04,02,13,32,30.60
2010,04,02,13,33,33.80
2010,04,02,13,34,25.70
2010,04,02,13,35,29.00
2010,04,02,13,36,35.40
2010,04,02,13,37,41.80
2010,04,02,13,38,32.20
2010,04,02,13,39,33.80
2010,04,02,13,40,24.20
2010,04,02,13,41,22.50
2010,04,02,13,42,19.30
2010,04,02,13,43,29.00
2010,04,02,13,44,30.60
2010,04,02,13,45,29.00
2010,04,02,13,46,29.00
2010,04,02,13,47,22.50
2010,04,02,13,48,40.20
2010,04,02,13,49,38.60
2010,04,02,13,50,37.00
2010,04,02,13,51,20.90
2010,04,02,13,52,17.70
2010,04,02,13,53,24.20
2010,04,02,13,54,22.50
2010,04,02,13,55,30.60
2010,04,02,13,56,48.30
2010,04,02,13,57,29.00
2010,04,02,13,58,30.60
2010,04,02,13,59,24.20
2010,04,02,14,00,20.90
2010,04,02,14,01,20.90
2010,04,02,14,02,32.20
2010,04,02,14,03,27.40
2010,04,02,14,04,29.00
2010,04,02,14,05,40.20
2010,04,02,14,06,27.40
2010,04,02,14,07,29.00
2010,04,02,14,08,27.40
2010,04,02,14,09,35.40
2010,04,02,14,10,37.00
2010,04,02,14,11,24.20
2010,04,02,14,12,29.00
2010,04,02,14,13,29.00
2010,04,02,14,14,29.00
2010,04,02,14,15,29.00
2010,04,02,14,16,30.60
2010,04,02,14,17,27.40
2010,04,02,14,18,22.50
2010,04,02,14,19,22.50
2010,04,02,14,20,20.90
2010,04,02,14,21,25.70
2010,04,02,14,22,38.60
2010,04,02,14,23,30.60
2010,04,02,14,24,32.20
2010,04,02,14,25,41.80
2010,04,02,14,26,38.60
2010,04,02,14,27,37.00
2010,04,02,14,28,29.00
2010,04,02,14,29,19.30
2010,04,02,14,30,25.70
2010,04,02,14,31,22.50
2010,04,02,14,32,25.70
2010,04,02,14,33,17.70
2010,04,02,14,34,17.70
2010,04,02,14,35,17.70
2010,04,02,14,36,29.00
2010,04,02,14,37,25.70
2010,04,02,14,38,17.70
2010,04,02,14,39,17.70
2010,04,02,14,40,35.40
2010,04,02,14,41,24.20
2010,04,02,14,42,32.20
2010,04,02,14,43,33.80
2010,04,02,14,44,32.20
2010,04,02,14,45,27.40
2010,04,02,14,46,24.20
2010,04,02,14,47,19.30
2010,04,02,14,48,20.90
2010,04,02,14,49,37.00
2010,04,02,14,50,25.70
2010,04,02,14,51,14.50
2010,04,02,14,52,17.70
2010,04,02,14,53,16.10
2010,04,02,14,54,11.30
2010,04,02,14,55,16.10
2010,04,02,14,56,17.70
2010,04,02,14,57,19.30
2010,04,02,14,58,11.30
2010,04,02,14,59,25.70
2010,04,02,15,00,9.60
2010,04,02,15,01,20.90
2010,04,02,15,02,37.00
2010,04,02,15,03,27.40
2010,04,02,15,04,29.00
2010,04,02,15,05,19.30
2010,04,02,15,06,30.60
2010,04,02,15,07,19.30
2010,04,02,15,08,22.50
2010,04,02,15,09,20.90
2010,04,02,15,10,22.50
2010,04,02,15,11,24.20
2010,04,02,15,12,16.10
2010,04,02,15,13,22.50
2010,04,02,15,14,20.90
2010,04,02,15,15,24.20
2010,04,02,15,16,19.30
2010,04,02,15,17,19.30
2010,04,02,15,18,20.90
2010,04,02,15,19,30.60
2010,04,02,15,20,16.10
2010,04,02,15,21,22.50
2010,04,02,15,22,19.30
2010,04,02,15,23,14.50
2010,04,02,15,24,29.00
2010,04,02,15,25,29.00
2010,04,02,15,26,20.90
2010,04,02,15,27,25.70
2010,04,02,15,28,29.00
2010,04,02,15,29,25.70
2010,04,02,15,30,25.70
2010,04,02,15,31,29.00
2010,04,02,15,32,22.50
2010,04,02,15,33,29.00
2010,04,02,15,34,20.90
2010,04,02,15,35,24.20
2010,04,02,15,36,48.30
2010,04,02,15,37,17.70
2010,04,02,15,38,17.70
2010,04,02,15,39,22.50
2010,04,02,15,40,20.90
2010,04,02,15,41,12.90
2010,04,02,15,42,27.40
2010,04,02,15,43,29.00
2010,04,02,15,44,24.20
2010,04,02,15,45,22.50
2010,04,02,15,46,27.40
2010,04,02,15,47,32.20
2010,04,02,15,48,30.60
2010,04,02,15,49,22.50
2010,04,02,15,50,32.20
2010,04,02,15,51,20.90
2010,04,02,15,52,24.20
2010,04,02,15,53,12.90
2010,04,02,15,54,27.40
2010,04,02,15,55,25.70
2010,04,02,15,56,14.50
2010,04,02,15,57,24.20
2010,04,02,15,58,25.70
2010,04,02,15,59,17.70
2010,04,02,16,00,24.20
2010,04,02,16,01,16.10
2010,04,02,16,02,22.50
2010,04,02,16,03,24.20
2010,04,02,16,04,25.70
2010,04,02,16,05,22.50
2010,04,02,16,06,27.40
2010,04,02,16,07,22.50
2010,04,02,16,08,22.50
2010,04,02,16,09,22.50
2010,04,02,16,10,17.70
2010,04,02,16,11,25.70
2010,04,02,16,12,29.00
2010,04,02,16,13,25.70
2010,04,02,16,14,29.00
2010,04,02,16,15,20.90
2010,04,02,16,16,19.30
2010,04,02,16,17,12.90
2010,04,02,16,18,20.90
2010,04,02,16,19,22.50
2010,04,02,16,20,20.90
2010,04,02,16,21,20.90
2010,04,02,16,22,20.90
2010,04,02,16,23,16.10
2010,04,02,16,24,24.20
2010,04,02,16,25,24.20
2010,04,02,16,26,29.00
2010,04,02,16,27,20.90
2010,04,02,16,28,27.40
2010,04,02,16,29,22.50
2010,04,02,16,30,30.60
2010,04,02,16,31,20.90
2010,04,02,16,32,27.40
2010,04,02,16,33,22.50
2010,04,02,16,34,19.30
2010,04,02,16,35,29.00
2010,04,02,16,36,20.90
2010,04,02,16,37,20.90
2010,04,02,16,38,24.20
2010,04,02,16,39,30.60
2010,04,02,16,40,20.90
2010,04,02,16,41,16.10
2010,04,02,16,42,16.10
2010,04,02,16,43,32.20
2010,04,02,16,44,24.20
2010,04,02,16,45,12.90
2010,04,02,16,46,25.70
2010,04,02,16,47,22.50
2010,04,02,16,48,22.50
2010,04,02,16,49,27.40
2010,04,02,16,50,29.00
2010,04,02,16,51,25.70
2010,04,02,16,52,29.00
2010,04,02,16,53,19.30
2010,04,02,16,54,17.70
2010,04,02,16,55,19.30
2010,04,02,16,56,19.30
2010,04,02,16,57,22.50
2010,04,02,16,58,32.20
2010,04,02,16,59,32.20
2010,04,02,17,00,17.70
2010,04,02,17,01,27.40
2010,04,02,17,02,27.40
2010,04,02,17,03,37.00
2010,04,02,17,04,24.20
2010,04,02,17,05,20.90
2010,04,02,17,06,11.30
2010,04,02,17,07,24.20
2010,04,02,17,08,30.60
2010,04,02,17,09,45.10
2010,04,02,17,10,46.70
2010,04,02,17,11,29.00
2010,04,02,17,12,40.20
2010,04,02,17,13,35.40
2010,04,02,17,14,30.60
2010,04,02,17,15,29.00
2010,04,02,17,16,22.50
2010,04,02,17,17,27.40
2010,04,02,17,18,35.40
2010,04,02,17,19,27.40
2010,04,02,17,20,37.00
2010,04,02,17,21,33.80
2010,04,02,17,22,37.00
2010,04,02,17,23,16.10
2010,04,02,17,24,20.90
2010,04,02,17,25,37.00
2010,04,02,17,26,22.50
2010,04,02,17,27,29.00
2010,04,02,17,28,24.20
2010,04,02,17,29,19.30